When you browse on this site, cookies collect data to enhance your experience and personalize the content and advertising you see.
Visit our Privacy Policy to learn more. By continuing to use the site, you agree to this use of cookies and data.
  • In Czech Republic
  • List of Countries
  • For 7 days
  • Water Temperature
  • Weather Map
  • Weather Widgets
  • user-avatar
    Login

    Hourly Weather Potsdam

    Today, 27 February, Thursday

    Time Temperature Precipitation Wind Pressure Humidity
    00:00 0°C° 0 mm 4 mps 746 mmHg 90%
    01:00 -1°C° 0 mm 4 mps 746 mmHg 90%
    02:00 0°C° 0 mm 4 mps 747 mmHg 90%
    03:00 0°C° 0 mm 4 mps 747 mmHg 91%
    04:00 0°C° 0 mm 4 mps 747 mmHg 91%
    05:00 0°C° 0.1 mm 4 mps 747 mmHg 91%
    06:00 0°C° 0.1 mm 4 mps 748 mmHg 91%
    07:00 +1°C° 0 mm 3 mps 748 mmHg 92%
    08:00 +1°C° 0 mm 4 mps 748 mmHg 87%
    09:00 +1°C° 0 mm 4 mps 748 mmHg 82%
    10:00 +3°C° 0 mm 4 mps 748 mmHg 77%
    11:00 +3°C° 0.2 mm 4 mps 747 mmHg 74%
    12:00 +4°C° 0.2 mm 4 mps 747 mmHg 71%
    13:00 +4°C° 0 mm 4 mps 747 mmHg 68%
    14:00 +4°C° 0.1 mm 3 mps 746 mmHg 67%
    15:00 +5°C° 0.1 mm 2 mps 745 mmHg 67%
    16:00 +6°C° 0.1 mm 1 mps 745 mmHg 66%
    17:00 +6°C° 0 mm 1 mps 745 mmHg 70%
    18:00 +5°C° 0 mm 1 mps 745 mmHg 74%
    19:00 +4°C° 0 mm 1 mps 745 mmHg 78%
    20:00 +4°C° 0.1 mm 1 mps 745 mmHg 79%
    21:00 +4°C° 0.1 mm 1 mps 745 mmHg 81%
    22:00 +4°C° 0.1 mm 1 mps 746 mmHg 82%
    23:00 +4°C° 0.1 mm 1 mps 746 mmHg 82%

    Tomorrow, 28 February, Friday

    Time Temperature Precipitation Wind Pressure Humidity
    00:00 +4°C° 0.1 mm 1 mps 747 mmHg 82%
    01:00 +2°C° 0.1 mm 2 mps 748 mmHg 83%
    02:00 +2°C° 0 mm 2 mps 748 mmHg 84%
    03:00 +2°C° 0 mm 2 mps 749 mmHg 86%
    04:00 0°C° 0 mm 3 mps 750 mmHg 87%
    05:00 0°C° 0 mm 3 mps 751 mmHg 89%
    06:00 -1°C° 0 mm 4 mps 751 mmHg 90%
    07:00 -1°C° 0 mm 4 mps 752 mmHg 92%
    08:00 0°C° 0 mm 4 mps 753 mmHg 87%
    09:00 +1°C° 0 mm 5 mps 754 mmHg 83%
    10:00 +2°C° 0 mm 5 mps 754 mmHg 78%
    11:00 +3°C° 0.1 mm 6 mps 755 mmHg 74%
    12:00 +4°C° 0.1 mm 6 mps 755 mmHg 69%
    13:00 +5°C° 0.1 mm 7 mps 756 mmHg 65%
    14:00 +5°C° 0.1 mm 6 mps 756 mmHg 64%
    15:00 +5°C° 0.1 mm 6 mps 756 mmHg 63%
    16:00 +6°C° 0.1 mm 5 mps 756 mmHg 61%
    17:00 +4°C° 0 mm 4 mps 756 mmHg 67%
    18:00 +3°C° 0 mm 4 mps 756 mmHg 74%
    19:00 +2°C° 0 mm 3 mps 756 mmHg 80%
    20:00 +2°C° 0 mm 3 mps 756 mmHg 81%
    21:00 +2°C° 0 mm 3 mps 756 mmHg 82%
    22:00 +1°C° 0 mm 3 mps 755 mmHg 83%
    23:00 0°C° 0 mm 4 mps 755 mmHg 82%

    Day after tomorrow, 29 February, Saturday

    Time Temperature Precipitation Wind Pressure Humidity
    00:00 0°C° 0 mm 4 mps 754 mmHg 80%
    01:00 0°C° 0 mm 4 mps 754 mmHg 78%
    02:00 0°C° 0 mm 5 mps 753 mmHg 78%
    03:00 0°C° 0 mm 5 mps 752 mmHg 78%
    04:00 -1°C° 0 mm 6 mps 750 mmHg 78%
    05:00 0°C° 0.6 mm 5 mps 750 mmHg 83%
    06:00 0°C° 0.6 mm 5 mps 749 mmHg 88%
    07:00 0°C° 0.6 mm 5 mps 748 mmHg 93%
    08:00 +1°C° 0.4 mm 5 mps 748 mmHg 92%
    09:00 +2°C° 0.4 mm 5 mps 747 mmHg 91%
    10:00 +2°C° 0.4 mm 5 mps 746 mmHg 90%
    11:00 +3°C° 0.6 mm 5 mps 746 mmHg 89%
    12:00 +3°C° 0.6 mm 5 mps 745 mmHg 89%
    13:00 +5°C° 0.6 mm 5 mps 745 mmHg 89%
    14:00 +6°C° 0 mm 5 mps 744 mmHg 86%
    15:00 +5°C° 0 mm 6 mps 743 mmHg 84%
    16:00 +7°C° 0 mm 6 mps 743 mmHg 81%
    17:00 +7°C° 0.1 mm 6 mps 742 mmHg 82%
    18:00 +7°C° 0.1 mm 6 mps 742 mmHg 82%
    19:00 +7°C° 0.1 mm 6 mps 742 mmHg 82%
    20:00 +7°C° 0 mm 6 mps 742 mmHg 82%
    21:00 +7°C° 0 mm 6 mps 742 mmHg 82%
    22:00 +6°C° 0 mm 7 mps 742 mmHg 82%
    23:00 +5°C° 0.2 mm 6 mps 743 mmHg 82%

    1 March, Sunday

    Time Temperature Precipitation Wind Pressure Humidity
    00:00 +5°C° 0.2 mm 5 mps 743 mmHg 82%
    01:00 +3°C° 0.2 mm 5 mps 744 mmHg 83%
    02:00 +3°C° 0 mm 4 mps 744 mmHg 82%
    03:00 +3°C° 0 mm 4 mps 745 mmHg 81%
    04:00 +3°C° 0 mm 4 mps 745 mmHg 80%
    05:00 +3°C° 0 mm 4 mps 745 mmHg 80%
    06:00 +2°C° 0 mm 5 mps 745 mmHg 81%
    07:00 +2°C° 0 mm 5 mps 745 mmHg 81%
    08:00 +3°C° 0 mm 5 mps 745 mmHg 77%
    09:00 +4°C° 0 mm 6 mps 745 mmHg 72%
    10:00 +5°C° 0 mm 7 mps 745 mmHg 68%
    11:00 +5°C° 0.2 mm 7 mps 745 mmHg 65%
    12:00 +6°C° 0.2 mm 7 mps 745 mmHg 63%
    13:00 +6°C° 0.2 mm 7 mps 745 mmHg 61%
    14:00 +7°C° 0 mm 6 mps 745 mmHg 60%
    15:00 +7°C° 0 mm 5 mps 745 mmHg 60%
    16:00 +7°C° 0 mm 5 mps 745 mmHg 59%
    17:00 +6°C° 0 mm 4 mps 745 mmHg 65%
    18:00 +5°C° 0 mm 3 mps 745 mmHg 71%
    19:00 +3°C° 0 mm 3 mps 746 mmHg 77%
    20:00 +3°C° 0 mm 3 mps 745 mmHg 78%
    21:00 +3°C° 0 mm 3 mps 745 mmHg 80%
    22:00 +3°C° 0 mm 3 mps 745 mmHg 82%
    23:00 +2°C° 0 mm 3 mps 745 mmHg 83%

    2 March, Monday

    Time Temperature Precipitation Wind Pressure Humidity
    00:00 +2°C° 0 mm 3 mps 744 mmHg 84%
    01:00 +2°C° 0 mm 3 mps 744 mmHg 85%
    02:00 +2°C° 0.1 mm 3 mps 743 mmHg 85%
    03:00 +3°C° 0.1 mm 3 mps 743 mmHg 85%
    04:00 +3°C° 0.1 mm 4 mps 742 mmHg 85%
    05:00 +3°C° 0 mm 4 mps 742 mmHg 83%
    06:00 +3°C° 0 mm 5 mps 742 mmHg 81%
    07:00 +3°C° 0 mm 6 mps 741 mmHg 79%
    08:00 +3°C° 0 mm 6 mps 741 mmHg 79%
    09:00 +4°C° 0 mm 6 mps 742 mmHg 79%
    10:00 +4°C° 0 mm 7 mps 742 mmHg 79%
    11:00 +5°C° 0 mm 6 mps 742 mmHg 74%
    12:00 +5°C° 0 mm 6 mps 742 mmHg 69%
    13:00 +7°C° 0 mm 6 mps 742 mmHg 64%
    14:00 +7°C° 0.1 mm 5 mps 742 mmHg 63%
    15:00 +7°C° 0.1 mm 4 mps 742 mmHg 61%
    16:00 +8°C° 0.1 mm 3 mps 742 mmHg 60%
    17:00 +7°C° 0 mm 3 mps 743 mmHg 65%
    18:00 +6°C° 0 mm 2 mps 743 mmHg 71%
    19:00 +5°C° 0 mm 1 mps 743 mmHg 76%
    20:00 +5°C° 0 mm 1 mps 744 mmHg 77%
    21:00 +4°C° 0 mm 2 mps 744 mmHg 78%
    22:00 +4°C° 0 mm 2 mps 744 mmHg 78%
    23:00 +5°C° 0.1 mm 1 mps 744 mmHg 82%

    3 March, Tuesday

    Time Temperature Precipitation Wind Pressure Humidity
    00:00 +5°C° 0.1 mm 1 mps 745 mmHg 85%
    01:00 +5°C° 0.1 mm 1 mps 745 mmHg 88%
    02:00 +5°C° 0.3 mm 1 mps 745 mmHg 89%
    03:00 +5°C° 0.3 mm 1 mps 745 mmHg 91%
    04:00 +5°C° 0.3 mm 1 mps 746 mmHg 92%
    05:00 +5°C° 0 mm 1 mps 746 mmHg 92%
    06:00 +4°C° 0 mm 1 mps 747 mmHg 93%
    07:00 +3°C° 0 mm 2 mps 748 mmHg 93%
    08:00 +4°C° 0 mm 2 mps 748 mmHg 87%
    09:00 +5°C° 0 mm 2 mps 749 mmHg 81%
    10:00 +5°C° 0 mm 3 mps 749 mmHg 75%
    11:00 +7°C° 0 mm 3 mps 750 mmHg 69%
    12:00 +7°C° 0 mm 3 mps 750 mmHg 64%
    13:00 +8°C° 0 mm 3 mps 750 mmHg 59%
    14:00 +8°C° 0.1 mm 3 mps 750 mmHg 58%
    15:00 +8°C° 0.1 mm 3 mps 750 mmHg 58%
    16:00 +8°C° 0.1 mm 3 mps 750 mmHg 57%
    17:00 +7°C° 0 mm 3 mps 750 mmHg 62%
    18:00 +6°C° 0 mm 2 mps 750 mmHg 67%
    19:00 +5°C° 0 mm 1 mps 751 mmHg 72%
    20:00 +5°C° 0 mm 1 mps 751 mmHg 74%
    21:00 +4°C° 0 mm 2 mps 751 mmHg 75%
    22:00 +4°C° 0 mm 2 mps 752 mmHg 77%
    23:00 +3°C° 0 mm 2 mps 751 mmHg 79%
    Show more